Regional Weather Roundup
Issued by NWS

Home | Current Version | Previous Version | Text Only | Print | Product List | Glossary Off
Versions: 1 2 3 4 5 6 7 8 9 10 11 12 13 14 15 16 17 18 19 20 21 22 23 24 25 26 27 28 29 30 31 32 33 34 35 36 37 38 39 40 41 42 43 44 45 46 47 48 49 50

000
ASUS45 KTFX 011910
RWRMT
MONTANA REGIONAL WEATHER ROUNDUP
NATIONAL WEATHER SERVICE GREAT FALLS MT
100 PM MDT SAT AUG 01 2015

NOTE: "FAIR" INDICATES FEW OR NO CLOUDS BELOW 12000 FEET WITH NO
SIGNIFICANT WEATHER AND/OR OBSTRUCTIONS TO VISIBILITY.

MTZ001>007-043-012000-
WEST OF THE DIVIDE

CITY           SKY/WX    TMP DP  RH WIND       PRES   REMARKS
KALISPELL      CLEAR     90  34  13 SE13      29.97F
MISSOULA       SUNNY     84  35  17 CALM      30.04F
BUTTE          SUNNY     86  27  11 N8        30.18F
MULLAN PASS    SUNNY     77  26  15 VRB7      30.22F
DEER LODGE       N/A     86  36  16 N9        30.15F
EUREKA           N/A     84  37  18 NW3       29.96F
HAMILTON         N/A     84  41  21 N5        30.04F
LIBBY            N/A     93  36  13 W5        29.94F
PLAINS           N/A     96  41  15 CALM      29.96F HX  91
RONAN            N/A     91  29  11 S8        30.05F
$$

MTZ008-052>055-012000-
SOUTHWEST MONTANA

CITY           SKY/WX    TMP DP  RH WIND       PRES   REMARKS
BOZEMAN        SUNNY     86  41  20 NW3       30.11F
DILLON         SUNNY     87  36  16 MISG      30.15F
W YELLOWSTONE  SUNNY     77  28  16 NW3       30.30F
THREE FORKS      N/A     84  42  22 E1        30.09F
TWIN BRIDGES     N/A     82  37  20 S3        30.12F
$$

MTZ009-010-012-014-046-048-049-054-012000-
EAST SLOPES AND CENTRAL MONTANA

CITY           SKY/WX    TMP DP  RH WIND       PRES   REMARKS
CUT BANK       SUNNY     91  21   8 W18G29    29.98F
GREAT FALLS    SUNNY     93  28  10 W17G23    29.99F
MALMSTROM AFB  SUNNY     91  28  10 W14G24    29.98F
HELENA         SUNNY     86  46  24 VRB5      30.05F
CONRAD           N/A     93  28  10 W9        30.01F
$$

MTZ011-013-016-021-045-047-050-051-012000-
NORTH CENTRAL MONTANA

CITY           SKY/WX    TMP DP  RH WIND       PRES   REMARKS
HAVRE          SUNNY     91  37  15 S6        29.88F
LEWISTOWN      SUNNY     92  30  11 NW15G23   30.03F
CHINOOK          N/A     91  39  16 W8        29.88F
FORT BENTON      N/A     93  25   8 W9G24     29.92F
$$

MTZ017>020-022>027-061-062-012000-
NORTHEAST MONTANA

CITY           SKY/WX    TMP DP  RH WIND       PRES   REMARKS
GLASGOW        SUNNY     92  45  19 NW10      29.84F
JORDAN           N/A     96  32  10 NW16G23   29.89F HX  90
SIDNEY         SUNNY    N/A N/A N/A SE9       29.84F
WOLF POINT     SUNNY     97  44  16 SW13      29.81F HX  93
MALTA            N/A     92  50  23 SW12      29.84F
PLENTYWOOD       N/A     91  45  19 SW10G16   29.82F
POPLAR           N/A     95  41  15 SW13G21   29.81F HX  91
SCOBEY           N/A     92  47  21 SW16      29.83F
$$

MTZ028>42-056>058-012000-
SOUTHCENTRAL AND SOUTHEAST MONTANA

CITY           SKY/WX    TMP DP  RH WIND       PRES   REMARKS
BAKER          SUNNY     94  37  13 W9        29.95F
BILLINGS       MOSUNNY   93  35  13 SW10G20   30.02F
LIVINGSTON     SUNNY     91  31  11 SW13G20   30.10F
MILES CITY     SUNNY     96  40  14 SW13      29.91F HX  92
EKALAKA          N/A     91  31  12 W12       29.98F
FORSYTH          N/A     95  37  13 W16       29.91F HX  90
LAUREL           N/A     95  34  11 SW9       30.00F HX  90
ROUNDUP          N/A     94  31  10 S8        29.90F
$$

REGIONAL REPORTS...DAKOTAS

CITY           SKY/WX    TMP DP  RH WIND       PRES   REMARKS
WILLISTON      SUNNY     89  54  30 SW6       29.85F
MINOT          SUNNY     87  48  25 SE7       29.84F
DICKINSON      SUNNY     89  47  23 VRB7      29.90F
CROSBY         FAIR      90  54  29 SW9       29.83F
BISMARCK       SUNNY     86  59  39 N8        29.84F
GRAND FORKS    MOSUNNY   84  54  35 SW10      29.82F
FARGO          MOSUNNY   84  58  40 SE10      29.84F
BUFFALO SD       N/A     93  34  12 NW14G23   29.90F
RAPID CITY     SUNNY     88  57  34 CALM      30.01F
$$

REGIONAL REPORTS...WYOMING/IDAHO/WASHINGTON

CITY           SKY/WX    TMP DP  RH WIND       PRES   REMARKS
GILLETTE       SUNNY     91  26   9 W13G21    30.07F
SHERIDAN       SUNNY     95  25   8 NW14      30.04F
BUFFALO WY     SUNNY     89  27  10 N8        30.14F
CODY           SUNNY     84  34  16 N7        30.14F
YELLOWSTONE LA   N/A     72  40  31 VRB3      30.40F
IDAHO FALLS    SUNNY     87  43  21 VRB5      30.17F
SALMON         SUNNY     79  39  24 W3        30.09F
BOISE          SUNNY     97  35  11 CALM      30.01F HX  92
SPOKANE        MOSUNNY   93  33  12 VRB3      29.96F
$$

REGIONAL REPORTS...ALBERTA

CITY           SKY/WX    TMP DP  RH WIND       PRES   REMARKS
EDMONTON       MOSUNNY   66  55  68 W6        29.99F
CALGARY        MOSUNNY   77  50  38 NE12G18   29.99F
LETHBRIDGE     SUNNY     88  41  19 W14       29.91F
MEDICINE HAT   MOSUNNY   86  46  25 N6        29.88F
WATERTON GATE    N/A     86  28  12 W17G32      N/A
CARDSTON         N/A     88  27  11 W13G18      N/A
MILK RIVER       N/A     93  32  11 NW17G26     N/A
ONEFOUR          N/A     88  36  15 NW9         N/A
$$

REGIONAL REPORTS...SASKATCHEWAN

CITY           SKY/WX    TMP DP  RH WIND       PRES   REMARKS
SWIFT CURRENT  SUNNY     81  55  41 NE17G24   29.87R
REGINA         MOSUNNY   82  57  42 E8        29.81F
SASKATOON      PTSUNNY   72  57  60 N12       29.91R
CYPRESS HILLS    N/A     81  37  21 NW9G18      N/A
VAL MARIE        N/A     91  37  15 NW20G29     N/A
ROCKGLEN         N/A     88  46  23 SW16G22     N/A
ASSINIBOIA       N/A     63  57  82 W7          N/A
$$


USA.gov is the U.S. government's official web portal to all federal, state and local government web resources and services.